GEFSCGP_prec_meanprecacc_156.txt.gz
Total_Precipitation_Accumulation
0.01 0.01 0.02 0.02 0.02 0.02 0.04 0.10 0.12 0.15 0.20 0.21 0.31 0.38 0.63 0.85 0.97 1.09 1.21 1.40 1.52 1.67 1.75 1.87 2.09 2.26 2.31 2.33 2.52 2.73 3.04 3.41 3.53 3.46 3.43 3.34 2.99 2.67 2.32 2.11 2.09 2.16 2.15 2.30
0.02 0.03 0.02 0.01 0.02 0.03 0.05 0.11 0.15 0.18 0.24 0.22 0.36 0.48 0.70 1.05 1.16 1.12 1.14 1.17 1.20 1.54 1.78 1.93 2.14 2.25 2.19 2.29 2.53 2.84 3.12 3.45 3.40 3.51 3.67 3.55 3.28 2.69 2.32 2.13 2.09 2.12 2.15 2.21
0.03 0.03 0.02 0.02 0.03 0.05 0.08 0.10 0.14 0.19 0.29 0.26 0.36 0.67 0.87 1.11 1.23 1.10 1.07 1.07 0.97 1.16 1.45 1.59 1.71 1.87 2.08 2.40 2.76 3.01 3.19 3.27 3.27 3.41 3.46 3.14 2.90 2.48 2.36 2.34 2.24 2.17 2.26 2.31
0.02 0.02 0.02 0.04 0.05 0.06 0.10 0.08 0.09 0.14 0.24 0.36 0.44 0.94 1.24 1.42 1.28 1.05 1.07 1.13 1.21 1.27 1.28 1.38 1.52 1.79 2.11 2.41 2.78 3.13 3.12 3.08 3.03 3.15 3.21 3.01 2.72 2.46 2.36 2.36 2.16 2.02 1.99 2.04
0.05 0.03 0.03 0.04 0.05 0.05 0.06 0.06 0.07 0.13 0.21 0.36 0.51 0.87 1.28 1.35 1.24 1.00 0.94 1.11 1.30 1.24 1.18 1.29 1.42 1.63 1.82 2.10 2.40 2.70 2.89 2.93 2.85 2.82 2.79 2.75 2.54 2.29 2.15 2.09 1.96 1.92 1.94 1.85
0.08 0.07 0.06 0.05 0.05 0.05 0.05 0.06 0.10 0.21 0.37 0.62 0.50 0.64 1.02 1.23 1.10 0.90 0.90 1.00 1.15 1.31 1.31 1.35 1.53 1.65 1.71 1.89 2.15 2.33 2.47 2.53 2.48 2.40 2.36 2.37 2.31 2.24 2.09 1.94 1.94 1.98 1.91 1.78
0.17 0.17 0.12 0.09 0.07 0.06 0.07 0.14 0.40 0.70 0.96 0.84 0.54 0.66 1.01 0.93 0.79 0.70 0.77 0.96 1.15 1.38 1.37 1.44 1.60 1.68 1.73 1.76 1.81 1.87 1.93 2.00 1.93 1.85 1.81 1.83 1.85 1.87 1.80 1.77 1.83 1.86 1.79 1.71
0.25 0.24 0.17 0.14 0.12 0.10 0.10 0.18 0.47 0.58 0.68 0.67 0.66 0.90 0.95 0.75 0.64 0.65 0.72 0.83 1.04 1.17 1.22 1.32 1.39 1.31 1.25 1.26 1.31 1.35 1.37 1.39 1.36 1.38 1.44 1.45 1.53 1.57 1.56 1.67 1.67 1.72 1.69 1.64
0.14 0.15 0.14 0.14 0.15 0.15 0.19 0.24 0.24 0.39 0.44 0.66 0.81 0.93 0.84 0.64 0.73 0.78 0.84 0.86 0.88 0.88 0.85 0.88 0.89 0.92 0.98 1.00 1.00 1.00 1.04 1.05 1.00 1.00 1.12 1.19 1.24 1.30 1.32 1.42 1.44 1.42 1.41 1.35
0.07 0.10 0.12 0.11 0.11 0.13 0.20 0.31 0.41 0.59 0.73 0.80 0.81 1.04 1.13 1.04 0.99 0.94 1.06 1.25 1.07 0.78 0.66 0.63 0.61 0.66 0.69 0.72 0.77 0.82 0.90 0.99 0.97 0.90 0.92 0.94 0.98 1.02 1.11 1.18 1.20 1.23 1.27 1.24
0.07 0.10 0.13 0.14 0.14 0.19 0.31 0.38 0.47 0.59 0.66 0.75 0.83 0.94 0.78 1.00 1.03 1.02 1.04 1.05 0.88 0.58 0.41 0.36 0.36 0.40 0.48 0.60 0.68 0.70 0.81 0.89 0.85 0.75 0.74 0.79 0.81 0.84 0.90 0.97 0.99 1.04 1.10 1.17
0.09 0.11 0.14 0.18 0.17 0.17 0.26 0.39 0.49 0.62 0.64 0.67 0.77 0.86 0.57 0.70 0.73 0.73 0.76 0.62 0.49 0.36 0.27 0.23 0.23 0.26 0.34 0.42 0.48 0.55 0.64 0.74 0.77 0.73 0.73 0.76 0.79 0.79 0.79 0.83 0.82 0.83 0.89 0.91
0.10 0.13 0.21 0.38 0.38 0.26 0.23 0.26 0.33 0.41 0.50 0.54 0.71 0.85 0.56 0.51 0.56 0.53 0.47 0.42 0.32 0.27 0.22 0.19 0.20 0.22 0.25 0.29 0.36 0.43 0.48 0.56 0.65 0.67 0.72 0.78 0.78 0.76 0.80 0.83 0.82 0.81 0.80 0.82
0.11 0.11 0.16 0.38 0.45 0.33 0.27 0.28 0.30 0.34 0.44 0.45 0.49 0.64 0.61 0.52 0.47 0.41 0.33 0.28 0.25 0.22 0.20 0.17 0.17 0.18 0.17 0.20 0.26 0.31 0.35 0.41 0.49 0.58 0.73 0.86 0.92 0.92 0.93 0.88 0.89 0.87 0.83 0.84
0.11 0.11 0.12 0.16 0.21 0.22 0.20 0.23 0.26 0.31 0.34 0.42 0.42 0.49 0.52 0.44 0.38 0.34 0.29 0.25 0.25 0.24 0.21 0.18 0.14 0.12 0.13 0.15 0.19 0.26 0.33 0.37 0.44 0.59 0.80 0.91 0.90 0.85 0.85 0.83 0.90 0.87 0.80 0.77
0.13 0.14 0.16 0.21 0.24 0.27 0.26 0.27 0.24 0.22 0.20 0.21 0.29 0.40 0.35 0.32 0.32 0.33 0.32 0.26 0.23 0.19 0.17 0.15 0.13 0.11 0.11 0.12 0.14 0.18 0.28 0.35 0.44 0.56 0.67 0.71 0.76 0.79 0.75 0.70 0.69 0.71 0.74 0.73
0.17 0.17 0.19 0.24 0.30 0.35 0.40 0.31 0.32 0.33 0.27 0.27 0.40 0.44 0.32 0.29 0.25 0.23 0.21 0.18 0.16 0.13 0.12 0.12 0.12 0.10 0.10 0.10 0.15 0.18 0.24 0.29 0.41 0.50 0.54 0.61 0.72 0.75 0.68 0.59 0.63 0.71 0.72 0.72
0.17 0.21 0.22 0.23 0.37 0.55 0.42 0.17 0.15 0.21 0.25 0.23 0.26 0.27 0.23 0.20 0.17 0.13 0.11 0.10 0.09 0.07 0.07 0.07 0.08 0.10 0.08 0.10 0.16 0.20 0.24 0.30 0.41 0.51 0.58 0.63 0.74 0.74 0.70 0.67 0.67 0.70 0.69 0.70
0.13 0.21 0.26 0.26 0.35 0.40 0.30 0.19 0.17 0.21 0.23 0.16 0.17 0.16 0.16 0.13 0.12 0.13 0.08 0.05 0.05 0.05 0.06 0.06 0.05 0.08 0.16 0.19 0.19 0.24 0.31 0.35 0.43 0.53 0.63 0.73 0.82 0.81 0.76 0.74 0.72 0.72 0.70 0.65
0.12 0.16 0.24 0.26 0.41 0.47 0.34 0.23 0.22 0.26 0.41 0.25 0.21 0.18 0.15 0.15 0.21 0.22 0.09 0.04 0.04 0.06 0.10 0.10 0.08 0.12 0.19 0.23 0.23 0.28 0.36 0.45 0.56 0.65 0.73 0.79 0.84 0.88 0.85 0.83 0.81 0.77 0.77 0.69
0.23 0.24 0.24 0.26 0.37 0.42 0.31 0.26 0.27 0.48 0.54 0.26 0.21 0.17 0.16 0.16 0.19 0.15 0.07 0.06 0.09 0.08 0.13 0.16 0.18 0.26 0.28 0.27 0.32 0.40 0.44 0.52 0.59 0.69 0.80 0.90 0.98 0.94 0.90 0.92 0.93 0.90 0.87 0.85
0.37 0.36 0.35 0.38 0.51 0.52 0.30 0.28 0.33 0.38 0.29 0.23 0.23 0.19 0.17 0.14 0.12 0.10 0.09 0.08 0.07 0.08 0.12 0.22 0.31 0.34 0.33 0.38 0.51 0.59 0.60 0.60 0.64 0.74 0.84 0.97 1.06 0.90 0.82 0.98 1.02 1.02 1.04 1.02
0.38 0.39 0.42 0.45 0.49 0.39 0.33 0.33 0.37 0.33 0.28 0.24 0.19 0.16 0.15 0.14 0.13 0.12 0.11 0.10 0.12 0.13 0.16 0.22 0.30 0.34 0.36 0.46 0.63 0.79 0.80 0.74 0.74 0.82 0.93 0.98 1.00 1.04 1.07 1.06 1.07 1.09 1.09 1.10
0.38 0.37 0.46 0.54 0.53 0.42 0.36 0.32 0.29 0.31 0.26 0.18 0.14 0.12 0.12 0.13 0.13 0.14 0.13 0.13 0.16 0.17 0.18 0.20 0.26 0.34 0.45 0.54 0.68 0.82 0.87 0.87 0.90 0.94 0.99 1.03 1.06 1.08 1.15 1.23 1.20 1.16 1.11 1.14
0.42 0.41 0.47 0.57 0.55 0.43 0.31 0.25 0.22 0.20 0.20 0.17 0.14 0.13 0.12 0.13 0.14 0.16 0.16 0.16 0.17 0.22 0.21 0.23 0.31 0.42 0.49 0.56 0.67 0.78 0.84 0.94 1.04 1.06 1.08 1.11 1.13 1.16 1.20 1.23 1.18 1.11 1.09 1.00
0.37 0.42 0.51 0.57 0.43 0.39 0.30 0.22 0.22 0.20 0.15 0.14 0.14 0.14 0.13 0.12 0.13 0.15 0.18 0.18 0.21 0.28 0.35 0.31 0.34 0.44 0.51 0.58 0.69 0.78 0.91 1.05 1.19 1.21 1.13 1.12 1.10 1.14 1.19 1.19 1.04 0.83 0.76 0.70

GEFSCGP_prec_meanprecacc_162.txt.gz
Total_Precipitation_Accumulation
0.01 0.01 0.02 0.02 0.02 0.02 0.04 0.10 0.13 0.15 0.20 0.21 0.31 0.38 0.63 0.85 0.97 1.09 1.21 1.40 1.54 1.70 1.78 1.90 2.12 2.29 2.35 2.37 2.57 2.81 3.14 3.52 3.63 3.53 3.49 3.42 3.08 2.77 2.42 2.19 2.18 2.27 2.24 2.35
0.02 0.03 0.02 0.01 0.02 0.03 0.05 0.11 0.15 0.18 0.24 0.22 0.36 0.48 0.70 1.05 1.16 1.12 1.14 1.18 1.21 1.57 1.80 1.95 2.16 2.28 2.21 2.32 2.56 2.89 3.18 3.52 3.48 3.58 3.74 3.62 3.35 2.77 2.40 2.19 2.16 2.20 2.21 2.25
0.03 0.03 0.02 0.02 0.03 0.05 0.08 0.10 0.14 0.19 0.29 0.26 0.36 0.68 0.87 1.12 1.23 1.10 1.07 1.08 0.98 1.17 1.47 1.61 1.73 1.88 2.10 2.43 2.79 3.05 3.23 3.31 3.34 3.47 3.53 3.21 2.97 2.55 2.42 2.40 2.29 2.22 2.31 2.35
0.02 0.02 0.02 0.04 0.05 0.06 0.10 0.08 0.09 0.14 0.24 0.37 0.45 0.95 1.24 1.42 1.29 1.05 1.08 1.14 1.21 1.28 1.29 1.40 1.53 1.81 2.14 2.44 2.81 3.18 3.16 3.13 3.09 3.21 3.28 3.08 2.79 2.52 2.41 2.41 2.19 2.05 2.03 2.08
0.05 0.03 0.03 0.04 0.05 0.06 0.07 0.06 0.07 0.13 0.21 0.36 0.51 0.87 1.28 1.35 1.24 1.01 0.95 1.11 1.31 1.25 1.19 1.30 1.43 1.65 1.85 2.13 2.42 2.73 2.94 2.98 2.90 2.89 2.88 2.83 2.62 2.37 2.21 2.12 1.99 1.95 1.98 1.89
0.08 0.07 0.06 0.05 0.05 0.05 0.05 0.06 0.11 0.21 0.37 0.63 0.51 0.64 1.03 1.23 1.10 0.90 0.90 1.00 1.16 1.32 1.33 1.36 1.54 1.67 1.74 1.91 2.16 2.35 2.50 2.56 2.53 2.47 2.47 2.48 2.40 2.32 2.15 1.98 1.97 2.00 1.95 1.81
0.17 0.17 0.12 0.09 0.07 0.06 0.07 0.14 0.41 0.71 0.98 0.85 0.54 0.66 1.01 0.93 0.79 0.70 0.77 0.96 1.16 1.40 1.40 1.46 1.61 1.70 1.75 1.79 1.83 1.89 1.96 2.03 1.97 1.91 1.91 1.95 1.95 1.94 1.85 1.82 1.86 1.89 1.84 1.74
0.25 0.24 0.17 0.14 0.12 0.10 0.10 0.19 0.48 0.59 0.69 0.68 0.66 0.90 0.95 0.75 0.64 0.65 0.72 0.84 1.05 1.20 1.25 1.33 1.40 1.34 1.27 1.29 1.33 1.38 1.40 1.43 1.40 1.43 1.51 1.53 1.62 1.64 1.61 1.72 1.73 1.75 1.72 1.67
0.14 0.15 0.14 0.15 0.16 0.15 0.19 0.24 0.24 0.39 0.44 0.67 0.81 0.93 0.84 0.64 0.73 0.78 0.84 0.86 0.89 0.89 0.87 0.88 0.90 0.95 1.00 1.01 1.02 1.03 1.07 1.08 1.03 1.04 1.17 1.25 1.32 1.36 1.37 1.47 1.50 1.45 1.43 1.36
0.07 0.10 0.12 0.11 0.11 0.14 0.20 0.31 0.42 0.60 0.74 0.81 0.81 1.04 1.13 1.04 0.99 0.94 1.06 1.25 1.07 0.78 0.66 0.63 0.62 0.67 0.71 0.73 0.78 0.85 0.93 1.01 0.99 0.93 0.95 0.98 1.03 1.06 1.16 1.21 1.23 1.25 1.28 1.25
0.07 0.10 0.13 0.14 0.14 0.19 0.31 0.38 0.47 0.59 0.66 0.76 0.84 0.95 0.78 1.00 1.03 1.02 1.04 1.05 0.88 0.58 0.41 0.37 0.37 0.41 0.49 0.61 0.69 0.72 0.83 0.91 0.86 0.77 0.77 0.82 0.83 0.87 0.93 1.00 1.01 1.06 1.11 1.18
0.09 0.11 0.14 0.18 0.17 0.17 0.26 0.39 0.49 0.63 0.66 0.68 0.78 0.87 0.57 0.70 0.73 0.73 0.76 0.62 0.49 0.37 0.28 0.24 0.23 0.27 0.34 0.43 0.49 0.56 0.66 0.75 0.77 0.74 0.75 0.79 0.81 0.81 0.81 0.84 0.83 0.85 0.90 0.93
0.11 0.14 0.23 0.39 0.38 0.26 0.23 0.26 0.33 0.42 0.51 0.55 0.72 0.85 0.56 0.51 0.56 0.53 0.47 0.42 0.32 0.28 0.23 0.20 0.20 0.23 0.25 0.30 0.37 0.44 0.49 0.57 0.65 0.68 0.74 0.81 0.80 0.77 0.81 0.84 0.83 0.82 0.81 0.83
0.11 0.12 0.18 0.39 0.46 0.33 0.27 0.28 0.30 0.34 0.45 0.46 0.49 0.64 0.61 0.53 0.47 0.41 0.33 0.29 0.26 0.22 0.21 0.18 0.17 0.19 0.18 0.21 0.27 0.32 0.36 0.42 0.49 0.58 0.74 0.88 0.93 0.93 0.94 0.89 0.89 0.87 0.84 0.85
0.11 0.12 0.12 0.16 0.22 0.23 0.20 0.23 0.26 0.31 0.34 0.42 0.42 0.49 0.53 0.44 0.38 0.35 0.29 0.25 0.26 0.24 0.21 0.19 0.15 0.12 0.13 0.16 0.19 0.27 0.34 0.38 0.44 0.60 0.82 0.93 0.91 0.86 0.85 0.83 0.90 0.88 0.80 0.78
0.13 0.14 0.16 0.21 0.24 0.27 0.26 0.27 0.24 0.22 0.20 0.22 0.30 0.41 0.35 0.32 0.32 0.34 0.32 0.26 0.23 0.20 0.17 0.15 0.13 0.12 0.11 0.12 0.14 0.18 0.28 0.35 0.45 0.57 0.68 0.72 0.76 0.79 0.75 0.70 0.69 0.71 0.74 0.74
0.18 0.18 0.20 0.26 0.31 0.36 0.41 0.31 0.33 0.33 0.27 0.28 0.41 0.46 0.33 0.29 0.25 0.23 0.21 0.18 0.17 0.14 0.12 0.12 0.12 0.11 0.10 0.11 0.15 0.19 0.24 0.30 0.42 0.51 0.55 0.62 0.73 0.75 0.68 0.59 0.63 0.71 0.73 0.72
0.18 0.24 0.24 0.25 0.39 0.57 0.44 0.18 0.15 0.22 0.25 0.24 0.27 0.29 0.25 0.21 0.17 0.13 0.12 0.10 0.09 0.07 0.07 0.08 0.08 0.10 0.09 0.10 0.16 0.20 0.24 0.30 0.42 0.52 0.58 0.63 0.74 0.75 0.70 0.68 0.68 0.70 0.70 0.70
0.14 0.23 0.29 0.30 0.38 0.42 0.32 0.21 0.19 0.22 0.24 0.17 0.19 0.19 0.18 0.14 0.13 0.14 0.09 0.05 0.05 0.05 0.06 0.06 0.05 0.09 0.17 0.19 0.19 0.24 0.31 0.35 0.43 0.53 0.64 0.74 0.82 0.82 0.77 0.74 0.73 0.73 0.70 0.66
0.14 0.19 0.29 0.30 0.44 0.49 0.36 0.24 0.24 0.29 0.44 0.28 0.24 0.21 0.17 0.16 0.23 0.23 0.10 0.04 0.04 0.06 0.10 0.10 0.08 0.12 0.19 0.23 0.23 0.29 0.36 0.45 0.56 0.66 0.74 0.80 0.84 0.88 0.85 0.83 0.82 0.78 0.77 0.70
0.27 0.29 0.29 0.30 0.42 0.45 0.32 0.27 0.31 0.53 0.59 0.30 0.24 0.20 0.18 0.17 0.21 0.17 0.08 0.06 0.09 0.09 0.13 0.16 0.18 0.26 0.28 0.27 0.32 0.40 0.44 0.52 0.59 0.69 0.80 0.90 0.98 0.95 0.91 0.92 0.94 0.91 0.88 0.86
0.42 0.41 0.39 0.43 0.55 0.56 0.33 0.31 0.39 0.44 0.32 0.26 0.26 0.22 0.19 0.15 0.13 0.11 0.10 0.08 0.07 0.09 0.13 0.22 0.31 0.34 0.33 0.38 0.51 0.59 0.61 0.61 0.64 0.75 0.85 0.97 1.07 0.91 0.84 0.99 1.04 1.03 1.04 1.04
0.43 0.44 0.47 0.51 0.54 0.43 0.36 0.37 0.42 0.36 0.31 0.26 0.22 0.21 0.18 0.16 0.15 0.13 0.12 0.10 0.12 0.13 0.16 0.22 0.31 0.35 0.37 0.46 0.63 0.79 0.80 0.74 0.75 0.83 0.94 0.99 1.02 1.06 1.08 1.08 1.09 1.10 1.10 1.11
0.43 0.42 0.52 0.59 0.56 0.46 0.40 0.35 0.31 0.33 0.29 0.20 0.16 0.17 0.17 0.16 0.15 0.15 0.14 0.13 0.16 0.17 0.18 0.21 0.27 0.35 0.45 0.54 0.68 0.83 0.87 0.88 0.91 0.95 1.00 1.04 1.07 1.10 1.16 1.25 1.22 1.17 1.12 1.14
0.48 0.49 0.55 0.64 0.62 0.49 0.36 0.29 0.26 0.23 0.23 0.19 0.17 0.17 0.16 0.16 0.16 0.17 0.18 0.17 0.18 0.23 0.23 0.25 0.33 0.43 0.50 0.57 0.68 0.78 0.84 0.95 1.05 1.08 1.09 1.13 1.15 1.18 1.22 1.24 1.20 1.13 1.10 1.01
0.42 0.51 0.62 0.69 0.54 0.47 0.35 0.28 0.26 0.23 0.17 0.16 0.16 0.16 0.15 0.13 0.14 0.17 0.20 0.20 0.22 0.30 0.38 0.35 0.38 0.47 0.53 0.60 0.70 0.80 0.93 1.07 1.21 1.23 1.15 1.14 1.12 1.16 1.21 1.22 1.07 0.86 0.79 0.72

GEFSCGP_prec_meanprecacc_168.txt.gz
Total_Precipitation_Accumulation
0.01 0.01 0.02 0.02 0.02 0.02 0.04 0.10 0.14 0.16 0.21 0.22 0.32 0.41 0.66 0.86 0.98 1.09 1.22 1.41 1.55 1.72 1.82 1.93 2.15 2.32 2.38 2.43 2.66 2.91 3.24 3.61 3.72 3.63 3.58 3.50 3.18 2.88 2.51 2.27 2.25 2.33 2.30 2.41
0.02 0.03 0.02 0.02 0.02 0.03 0.06 0.11 0.15 0.19 0.24 0.23 0.36 0.48 0.70 1.07 1.17 1.13 1.15 1.19 1.22 1.58 1.82 1.99 2.19 2.30 2.25 2.37 2.64 2.99 3.27 3.60 3.57 3.68 3.83 3.71 3.45 2.86 2.48 2.27 2.23 2.25 2.26 2.28
0.03 0.03 0.02 0.02 0.03 0.05 0.08 0.10 0.15 0.20 0.30 0.27 0.37 0.69 0.89 1.14 1.26 1.12 1.08 1.09 1.00 1.18 1.49 1.63 1.76 1.90 2.13 2.47 2.87 3.12 3.31 3.40 3.44 3.56 3.61 3.29 3.07 2.64 2.50 2.47 2.34 2.26 2.34 2.38
0.02 0.02 0.02 0.04 0.05 0.06 0.10 0.08 0.09 0.14 0.25 0.38 0.46 0.97 1.27 1.45 1.31 1.06 1.09 1.15 1.22 1.29 1.31 1.41 1.55 1.82 2.16 2.48 2.89 3.27 3.25 3.22 3.17 3.29 3.35 3.16 2.86 2.60 2.47 2.46 2.24 2.08 2.05 2.10
0.05 0.03 0.03 0.04 0.05 0.06 0.07 0.06 0.07 0.13 0.21 0.37 0.53 0.90 1.32 1.39 1.28 1.03 0.96 1.12 1.32 1.27 1.21 1.31 1.45 1.67 1.87 2.16 2.47 2.82 3.04 3.07 2.97 2.97 2.97 2.93 2.70 2.44 2.27 2.20 2.08 2.01 2.02 1.91
0.08 0.07 0.06 0.05 0.05 0.05 0.05 0.06 0.11 0.21 0.38 0.66 0.53 0.66 1.06 1.26 1.14 0.92 0.92 1.03 1.17 1.33 1.34 1.38 1.56 1.70 1.77 1.95 2.20 2.41 2.58 2.65 2.61 2.55 2.55 2.57 2.47 2.38 2.20 2.04 2.05 2.06 1.98 1.83
0.17 0.17 0.12 0.09 0.07 0.06 0.07 0.15 0.44 0.76 1.05 0.92 0.58 0.68 1.02 0.94 0.80 0.71 0.77 0.97 1.18 1.42 1.42 1.47 1.63 1.72 1.77 1.81 1.86 1.95 2.01 2.10 2.04 1.98 1.98 2.03 2.03 2.01 1.91 1.87 1.92 1.94 1.87 1.76
0.25 0.24 0.17 0.14 0.12 0.10 0.10 0.19 0.52 0.68 0.80 0.76 0.72 0.95 0.99 0.76 0.64 0.65 0.72 0.85 1.08 1.23 1.27 1.35 1.42 1.35 1.29 1.31 1.36 1.43 1.45 1.48 1.46 1.51 1.60 1.62 1.72 1.71 1.66 1.77 1.77 1.79 1.75 1.69
0.14 0.15 0.14 0.15 0.16 0.15 0.19 0.24 0.25 0.41 0.48 0.74 0.89 1.00 0.91 0.66 0.74 0.79 0.85 0.88 0.91 0.92 0.91 0.91 0.93 0.97 1.02 1.04 1.05 1.07 1.11 1.12 1.07 1.09 1.23 1.31 1.38 1.41 1.42 1.51 1.54 1.49 1.47 1.39
0.07 0.10 0.13 0.11 0.11 0.14 0.20 0.32 0.43 0.63 0.80 0.88 0.87 1.13 1.23 1.08 1.01 0.95 1.07 1.27 1.10 0.81 0.73 0.69 0.66 0.69 0.73 0.75 0.82 0.89 0.96 1.06 1.03 0.96 0.98 1.00 1.07 1.11 1.21 1.26 1.27 1.30 1.33 1.29
0.07 0.10 0.13 0.14 0.14 0.19 0.31 0.39 0.49 0.61 0.69 0.83 0.93 1.07 0.94 1.07 1.06 1.03 1.06 1.10 0.92 0.60 0.46 0.44 0.40 0.44 0.51 0.63 0.71 0.75 0.87 0.96 0.91 0.81 0.81 0.85 0.86 0.91 0.98 1.05 1.06 1.11 1.16 1.22
0.10 0.11 0.15 0.18 0.17 0.17 0.27 0.40 0.50 0.66 0.69 0.72 0.86 0.96 0.62 0.73 0.75 0.74 0.78 0.68 0.56 0.40 0.30 0.26 0.26 0.29 0.36 0.45 0.50 0.58 0.68 0.78 0.81 0.77 0.78 0.83 0.85 0.85 0.86 0.89 0.88 0.90 0.95 0.97
0.11 0.15 0.25 0.42 0.41 0.27 0.24 0.26 0.33 0.42 0.52 0.58 0.80 0.94 0.60 0.53 0.58 0.56 0.50 0.49 0.37 0.35 0.28 0.21 0.21 0.24 0.26 0.31 0.38 0.46 0.51 0.59 0.67 0.70 0.76 0.84 0.84 0.81 0.85 0.88 0.87 0.86 0.86 0.87
0.12 0.13 0.20 0.44 0.51 0.38 0.29 0.29 0.30 0.35 0.47 0.49 0.53 0.70 0.69 0.59 0.54 0.46 0.37 0.35 0.32 0.27 0.22 0.19 0.18 0.20 0.19 0.22 0.28 0.34 0.37 0.43 0.51 0.60 0.76 0.92 0.98 0.97 0.98 0.94 0.94 0.91 0.87 0.88
0.11 0.12 0.13 0.18 0.25 0.25 0.24 0.25 0.27 0.31 0.36 0.44 0.45 0.55 0.64 0.51 0.46 0.43 0.33 0.27 0.30 0.27 0.23 0.20 0.16 0.13 0.15 0.17 0.20 0.27 0.35 0.39 0.45 0.61 0.84 0.97 0.95 0.90 0.89 0.87 0.94 0.92 0.84 0.80
0.13 0.14 0.16 0.22 0.26 0.29 0.29 0.29 0.25 0.23 0.21 0.23 0.32 0.45 0.46 0.42 0.39 0.37 0.34 0.27 0.25 0.23 0.20 0.17 0.14 0.12 0.12 0.13 0.15 0.19 0.29 0.36 0.46 0.59 0.70 0.75 0.81 0.84 0.81 0.75 0.72 0.75 0.78 0.77
0.18 0.18 0.21 0.27 0.32 0.38 0.44 0.34 0.34 0.34 0.28 0.29 0.46 0.53 0.39 0.36 0.29 0.25 0.22 0.19 0.18 0.17 0.15 0.14 0.13 0.11 0.11 0.11 0.16 0.19 0.25 0.31 0.43 0.54 0.58 0.65 0.78 0.81 0.75 0.64 0.66 0.73 0.76 0.75
0.19 0.25 0.25 0.28 0.42 0.61 0.47 0.21 0.17 0.23 0.27 0.25 0.32 0.34 0.29 0.25 0.21 0.15 0.12 0.10 0.09 0.08 0.08 0.10 0.10 0.12 0.10 0.11 0.17 0.21 0.26 0.31 0.44 0.57 0.63 0.67 0.80 0.81 0.75 0.71 0.70 0.72 0.72 0.72
0.14 0.25 0.31 0.34 0.44 0.47 0.37 0.23 0.22 0.27 0.27 0.18 0.22 0.23 0.24 0.20 0.17 0.18 0.11 0.06 0.05 0.05 0.06 0.07 0.06 0.10 0.19 0.21 0.21 0.26 0.32 0.36 0.44 0.57 0.67 0.76 0.86 0.87 0.82 0.78 0.76 0.75 0.72 0.67
0.16 0.22 0.33 0.35 0.50 0.56 0.42 0.27 0.27 0.35 0.51 0.31 0.26 0.28 0.27 0.22 0.33 0.32 0.12 0.05 0.05 0.06 0.10 0.11 0.09 0.13 0.20 0.26 0.26 0.31 0.37 0.46 0.57 0.67 0.75 0.81 0.87 0.91 0.88 0.87 0.86 0.82 0.80 0.72
0.33 0.36 0.36 0.36 0.49 0.54 0.38 0.29 0.34 0.61 0.70 0.35 0.27 0.25 0.24 0.23 0.29 0.24 0.12 0.08 0.10 0.09 0.14 0.17 0.20 0.27 0.30 0.29 0.34 0.42 0.46 0.53 0.59 0.69 0.80 0.92 1.00 0.96 0.92 0.95 0.97 0.94 0.90 0.89
0.47 0.47 0.46 0.50 0.64 0.66 0.38 0.34 0.46 0.52 0.37 0.29 0.29 0.25 0.22 0.19 0.17 0.16 0.14 0.11 0.09 0.11 0.16 0.28 0.34 0.37 0.36 0.41 0.54 0.63 0.65 0.63 0.66 0.76 0.86 0.99 1.09 0.93 0.85 1.01 1.06 1.05 1.07 1.06
0.48 0.51 0.56 0.63 0.66 0.54 0.43 0.43 0.48 0.39 0.33 0.29 0.25 0.25 0.21 0.18 0.16 0.15 0.15 0.14 0.15 0.16 0.20 0.30 0.35 0.38 0.40 0.50 0.66 0.83 0.84 0.79 0.78 0.86 0.97 1.01 1.03 1.08 1.10 1.09 1.11 1.12 1.12 1.13
0.47 0.45 0.59 0.68 0.67 0.57 0.49 0.41 0.35 0.36 0.31 0.23 0.19 0.19 0.20 0.19 0.20 0.18 0.16 0.17 0.20 0.21 0.22 0.25 0.30 0.37 0.48 0.57 0.71 0.86 0.91 0.93 0.96 0.99 1.04 1.07 1.09 1.12 1.18 1.28 1.24 1.20 1.14 1.16
0.53 0.55 0.64 0.74 0.72 0.59 0.46 0.35 0.29 0.25 0.24 0.22 0.19 0.18 0.18 0.19 0.21 0.22 0.22 0.22 0.23 0.28 0.28 0.30 0.38 0.48 0.55 0.62 0.72 0.82 0.90 1.01 1.11 1.14 1.14 1.16 1.17 1.20 1.25 1.28 1.24 1.17 1.13 1.04
0.45 0.57 0.73 0.81 0.64 0.56 0.43 0.33 0.29 0.24 0.19 0.19 0.19 0.19 0.19 0.19 0.18 0.21 0.24 0.24 0.26 0.33 0.42 0.41 0.44 0.54 0.59 0.66 0.77 0.87 1.01 1.14 1.30 1.30 1.21 1.19 1.16 1.20 1.24 1.24 1.10 0.89 0.82 0.75

GEFSCGP_prec_meanprecacc_174.txt.gz
Total_Precipitation_Accumulation
0.01 0.02 0.02 0.02 0.02 0.03 0.05 0.12 0.15 0.18 0.23 0.25 0.35 0.42 0.68 0.89 1.01 1.14 1.28 1.48 1.61 1.80 1.91 2.04 2.26 2.40 2.44 2.49 2.71 2.96 3.30 3.67 3.77 3.68 3.64 3.55 3.23 2.95 2.62 2.33 2.29 2.37 2.32 2.42
0.02 0.03 0.02 0.02 0.02 0.03 0.06 0.12 0.17 0.20 0.26 0.25 0.41 0.51 0.73 1.10 1.23 1.19 1.23 1.27 1.31 1.66 1.90 2.12 2.31 2.38 2.30 2.41 2.68 3.04 3.32 3.65 3.61 3.74 3.90 3.78 3.50 2.94 2.58 2.35 2.26 2.28 2.28 2.30
0.03 0.03 0.02 0.02 0.03 0.06 0.08 0.11 0.16 0.21 0.32 0.29 0.40 0.73 0.93 1.20 1.32 1.22 1.19 1.20 1.12 1.29 1.56 1.72 1.84 1.97 2.19 2.53 2.92 3.16 3.37 3.47 3.50 3.64 3.71 3.38 3.14 2.72 2.57 2.52 2.37 2.28 2.36 2.40
0.02 0.02 0.02 0.04 0.05 0.07 0.10 0.09 0.09 0.15 0.26 0.40 0.49 1.03 1.32 1.50 1.37 1.12 1.17 1.22 1.29 1.37 1.42 1.51 1.62 1.90 2.23 2.55 2.96 3.34 3.32 3.29 3.24 3.36 3.43 3.21 2.89 2.63 2.52 2.49 2.26 2.11 2.08 2.12
0.05 0.03 0.03 0.04 0.05 0.06 0.07 0.07 0.07 0.13 0.21 0.38 0.55 0.95 1.37 1.44 1.32 1.07 1.01 1.19 1.39 1.33 1.30 1.40 1.51 1.74 1.93 2.23 2.54 2.89 3.13 3.15 3.03 3.02 3.03 2.97 2.74 2.47 2.31 2.24 2.11 2.04 2.04 1.93
0.08 0.07 0.06 0.05 0.06 0.05 0.05 0.07 0.11 0.21 0.38 0.68 0.55 0.69 1.11 1.32 1.19 0.96 0.95 1.10 1.25 1.39 1.39 1.44 1.64 1.77 1.83 2.01 2.28 2.48 2.66 2.73 2.67 2.60 2.60 2.61 2.50 2.41 2.22 2.07 2.08 2.09 2.00 1.85
0.17 0.17 0.12 0.09 0.07 0.06 0.07 0.15 0.44 0.77 1.06 0.95 0.61 0.72 1.07 1.00 0.84 0.75 0.82 1.05 1.28 1.50 1.47 1.52 1.68 1.76 1.82 1.86 1.94 2.01 2.07 2.16 2.10 2.04 2.03 2.06 2.05 2.04 1.93 1.88 1.93 1.97 1.89 1.78
0.25 0.24 0.17 0.15 0.12 0.10 0.10 0.19 0.53 0.70 0.83 0.82 0.77 1.00 1.07 0.83 0.71 0.70 0.76 0.92 1.17 1.31 1.33 1.40 1.46 1.38 1.32 1.34 1.41 1.48 1.50 1.53 1.51 1.55 1.63 1.66 1.76 1.76 1.71 1.78 1.78 1.81 1.78 1.72
0.14 0.15 0.15 0.15 0.16 0.15 0.19 0.24 0.25 0.42 0.50 0.80 0.98 1.12 1.04 0.76 0.86 0.85 0.91 0.95 1.00 1.02 1.01 0.99 0.98 1.01 1.06 1.08 1.10 1.11 1.15 1.17 1.12 1.14 1.26 1.34 1.41 1.45 1.47 1.55 1.56 1.51 1.49 1.41
0.07 0.11 0.13 0.11 0.11 0.14 0.20 0.32 0.44 0.64 0.82 0.94 0.98 1.25 1.40 1.25 1.17 1.06 1.16 1.37 1.18 0.91 0.86 0.83 0.77 0.77 0.79 0.80 0.89 0.96 1.03 1.12 1.09 1.02 1.02 1.02 1.10 1.13 1.25 1.30 1.29 1.32 1.35 1.31
0.08 0.10 0.13 0.15 0.15 0.20 0.32 0.40 0.49 0.62 0.71 0.90 1.05 1.18 1.06 1.18 1.14 1.11 1.16 1.21 1.03 0.73 0.61 0.62 0.54 0.53 0.58 0.67 0.76 0.81 0.93 1.02 0.98 0.87 0.86 0.89 0.90 0.94 1.01 1.08 1.07 1.12 1.18 1.25
0.10 0.11 0.15 0.18 0.18 0.18 0.27 0.40 0.51 0.67 0.74 0.79 0.93 1.03 0.67 0.80 0.82 0.83 0.90 0.79 0.67 0.54 0.44 0.53 0.50 0.42 0.45 0.50 0.54 0.61 0.71 0.82 0.85 0.82 0.83 0.88 0.90 0.89 0.89 0.92 0.90 0.92 0.98 0.99
0.12 0.16 0.26 0.43 0.42 0.27 0.25 0.27 0.34 0.44 0.56 0.62 0.85 1.00 0.66 0.59 0.65 0.67 0.67 0.63 0.50 0.53 0.47 0.46 0.48 0.38 0.35 0.38 0.43 0.49 0.54 0.62 0.72 0.75 0.81 0.88 0.87 0.85 0.87 0.92 0.91 0.88 0.88 0.90
0.13 0.14 0.22 0.45 0.52 0.40 0.32 0.31 0.33 0.37 0.49 0.52 0.57 0.77 0.74 0.66 0.61 0.65 0.61 0.51 0.43 0.42 0.45 0.40 0.38 0.33 0.27 0.29 0.33 0.37 0.39 0.45 0.53 0.63 0.79 0.95 1.01 1.00 1.01 0.98 0.98 0.95 0.90 0.91
0.12 0.13 0.14 0.19 0.26 0.28 0.26 0.27 0.30 0.33 0.38 0.48 0.49 0.59 0.68 0.59 0.56 0.61 0.55 0.45 0.46 0.38 0.35 0.32 0.29 0.23 0.22 0.22 0.25 0.31 0.38 0.42 0.48 0.63 0.86 1.00 1.00 0.95 0.94 0.91 0.97 0.96 0.88 0.83
0.14 0.15 0.17 0.23 0.27 0.30 0.31 0.31 0.27 0.25 0.24 0.27 0.36 0.51 0.50 0.48 0.48 0.53 0.54 0.45 0.42 0.38 0.32 0.27 0.24 0.20 0.17 0.16 0.18 0.23 0.33 0.39 0.50 0.64 0.73 0.77 0.84 0.88 0.84 0.78 0.75 0.78 0.81 0.80
0.19 0.19 0.23 0.29 0.34 0.40 0.47 0.39 0.37 0.36 0.32 0.33 0.51 0.58 0.45 0.44 0.43 0.43 0.40 0.33 0.32 0.31 0.31 0.28 0.22 0.20 0.16 0.14 0.18 0.22 0.29 0.35 0.47 0.59 0.61 0.68 0.82 0.85 0.78 0.66 0.69 0.76 0.79 0.79
0.21 0.26 0.26 0.29 0.45 0.65 0.50 0.28 0.25 0.27 0.31 0.29 0.35 0.38 0.35 0.34 0.32 0.28 0.28 0.23 0.21 0.18 0.18 0.17 0.16 0.19 0.17 0.17 0.21 0.24 0.28 0.34 0.47 0.60 0.65 0.69 0.83 0.84 0.79 0.75 0.74 0.75 0.76 0.77
0.18 0.28 0.33 0.36 0.47 0.52 0.42 0.28 0.27 0.32 0.33 0.23 0.26 0.29 0.30 0.31 0.31 0.39 0.27 0.16 0.15 0.12 0.14 0.14 0.13 0.17 0.25 0.28 0.29 0.33 0.38 0.39 0.47 0.59 0.69 0.78 0.89 0.90 0.86 0.82 0.79 0.79 0.77 0.72
0.20 0.27 0.37 0.39 0.54 0.61 0.48 0.32 0.33 0.40 0.60 0.41 0.33 0.37 0.36 0.31 0.46 0.49 0.29 0.15 0.16 0.14 0.18 0.18 0.18 0.22 0.28 0.33 0.32 0.36 0.41 0.48 0.58 0.69 0.77 0.84 0.91 0.98 0.96 0.93 0.91 0.86 0.84 0.77
0.39 0.42 0.42 0.41 0.53 0.60 0.43 0.32 0.37 0.68 0.82 0.46 0.38 0.38 0.39 0.38 0.40 0.35 0.23 0.19 0.21 0.18 0.21 0.24 0.28 0.37 0.39 0.38 0.42 0.48 0.50 0.55 0.61 0.71 0.82 0.95 1.04 1.02 1.01 1.03 1.02 0.98 0.93 0.92
0.57 0.55 0.52 0.55 0.69 0.73 0.44 0.40 0.53 0.62 0.47 0.38 0.37 0.34 0.33 0.30 0.26 0.25 0.24 0.21 0.18 0.18 0.23 0.35 0.45 0.50 0.49 0.54 0.64 0.70 0.71 0.68 0.69 0.79 0.88 1.03 1.15 1.00 0.94 1.10 1.13 1.10 1.10 1.09
0.60 0.62 0.66 0.71 0.74 0.61 0.50 0.51 0.59 0.48 0.42 0.35 0.30 0.30 0.28 0.25 0.23 0.23 0.25 0.22 0.21 0.21 0.25 0.38 0.49 0.53 0.53 0.61 0.75 0.89 0.89 0.84 0.82 0.90 1.00 1.03 1.06 1.12 1.15 1.17 1.18 1.18 1.16 1.17
0.59 0.55 0.68 0.77 0.75 0.65 0.56 0.51 0.48 0.46 0.40 0.30 0.24 0.24 0.25 0.25 0.25 0.24 0.27 0.30 0.28 0.27 0.28 0.34 0.46 0.51 0.60 0.68 0.80 0.94 0.98 0.98 0.99 1.03 1.08 1.12 1.14 1.16 1.23 1.33 1.30 1.26 1.20 1.22
0.63 0.64 0.73 0.83 0.81 0.69 0.54 0.44 0.37 0.31 0.31 0.28 0.24 0.22 0.22 0.24 0.29 0.28 0.34 0.36 0.33 0.36 0.34 0.38 0.51 0.60 0.66 0.72 0.81 0.90 0.97 1.06 1.15 1.18 1.20 1.22 1.23 1.27 1.32 1.34 1.31 1.24 1.20 1.12
0.52 0.64 0.82 0.91 0.75 0.64 0.50 0.41 0.39 0.31 0.26 0.25 0.24 0.22 0.23 0.22 0.24 0.26 0.31 0.38 0.37 0.43 0.51 0.48 0.52 0.63 0.69 0.77 0.86 0.96 1.10 1.22 1.36 1.37 1.29 1.28 1.26 1.32 1.36 1.35 1.19 0.98 0.91 0.85

GEFSCGP_prec_meanprecacc_180.txt.gz
Total_Precipitation_Accumulation
0.01 0.02 0.02 0.02 0.02 0.03 0.05 0.12 0.15 0.19 0.24 0.25 0.36 0.43 0.69 0.90 1.02 1.14 1.29 1.50 1.65 1.84 1.95 2.13 2.41 2.57 2.59 2.65 2.83 3.05 3.40 3.79 3.90 3.78 3.72 3.63 3.29 3.01 2.67 2.38 2.33 2.41 2.36 2.44
0.02 0.03 0.02 0.02 0.02 0.03 0.06 0.12 0.17 0.21 0.26 0.26 0.41 0.51 0.74 1.11 1.23 1.20 1.25 1.29 1.34 1.69 1.94 2.17 2.40 2.47 2.39 2.51 2.76 3.10 3.39 3.74 3.70 3.80 3.97 3.86 3.60 3.04 2.68 2.48 2.35 2.34 2.34 2.35
0.03 0.03 0.02 0.02 0.03 0.06 0.08 0.11 0.16 0.21 0.32 0.29 0.40 0.73 0.94 1.21 1.33 1.23 1.21 1.22 1.17 1.33 1.60 1.76 1.90 2.02 2.25 2.60 2.98 3.20 3.42 3.55 3.60 3.74 3.82 3.50 3.28 2.84 2.69 2.64 2.46 2.35 2.42 2.45
0.02 0.02 0.02 0.04 0.05 0.07 0.10 0.09 0.09 0.15 0.26 0.40 0.50 1.04 1.33 1.51 1.37 1.13 1.18 1.23 1.33 1.42 1.45 1.55 1.66 1.94 2.27 2.61 3.04 3.41 3.39 3.39 3.33 3.46 3.55 3.33 2.98 2.69 2.57 2.53 2.31 2.17 2.14 2.19
0.05 0.03 0.03 0.04 0.05 0.06 0.07 0.07 0.08 0.14 0.22 0.39 0.56 0.95 1.37 1.44 1.32 1.08 1.02 1.20 1.41 1.35 1.34 1.45 1.54 1.78 1.98 2.30 2.64 2.99 3.22 3.26 3.14 3.11 3.13 3.14 2.88 2.55 2.38 2.30 2.17 2.09 2.10 1.99
0.08 0.07 0.06 0.05 0.06 0.05 0.06 0.07 0.12 0.22 0.40 0.69 0.55 0.69 1.11 1.32 1.19 0.96 0.96 1.11 1.25 1.40 1.40 1.47 1.68 1.83 1.90 2.10 2.39 2.59 2.76 2.83 2.77 2.70 2.68 2.71 2.63 2.48 2.28 2.11 2.11 2.12 2.03 1.88
0.17 0.17 0.12 0.09 0.07 0.06 0.07 0.15 0.45 0.78 1.07 0.95 0.61 0.72 1.07 1.00 0.84 0.75 0.82 1.05 1.29 1.51 1.48 1.55 1.71 1.81 1.88 1.93 2.02 2.10 2.16 2.25 2.21 2.16 2.13 2.13 2.11 2.09 1.97 1.91 1.96 1.99 1.91 1.79
0.25 0.24 0.17 0.15 0.12 0.10 0.10 0.19 0.53 0.70 0.83 0.82 0.77 1.00 1.07 0.83 0.71 0.71 0.76 0.93 1.18 1.33 1.35 1.42 1.49 1.42 1.37 1.41 1.48 1.56 1.58 1.61 1.60 1.65 1.74 1.74 1.81 1.80 1.74 1.81 1.81 1.83 1.80 1.73
0.14 0.15 0.15 0.15 0.16 0.15 0.20 0.24 0.26 0.42 0.50 0.80 0.98 1.12 1.04 0.76 0.86 0.85 0.91 0.97 1.02 1.05 1.04 1.03 1.02 1.07 1.12 1.14 1.15 1.17 1.22 1.25 1.19 1.22 1.35 1.43 1.46 1.49 1.51 1.59 1.61 1.54 1.51 1.43
0.08 0.11 0.13 0.11 0.12 0.14 0.21 0.33 0.44 0.65 0.82 0.94 0.98 1.25 1.40 1.25 1.17 1.06 1.16 1.38 1.20 0.94 0.88 0.88 0.83 0.83 0.85 0.87 0.96 1.04 1.10 1.20 1.16 1.09 1.11 1.10 1.14 1.17 1.29 1.35 1.34 1.35 1.38 1.35
0.08 0.10 0.13 0.15 0.15 0.20 0.32 0.40 0.50 0.63 0.72 0.90 1.05 1.18 1.06 1.18 1.14 1.12 1.16 1.22 1.05 0.74 0.63 0.66 0.61 0.62 0.66 0.75 0.86 0.90 1.04 1.13 1.05 0.94 0.94 0.97 0.95 0.98 1.05 1.13 1.11 1.15 1.22 1.29
0.10 0.11 0.15 0.18 0.18 0.18 0.27 0.40 0.51 0.67 0.74 0.79 0.93 1.03 0.67 0.80 0.82 0.83 0.91 0.80 0.68 0.56 0.46 0.57 0.56 0.51 0.54 0.58 0.64 0.72 0.83 0.95 0.93 0.89 0.91 0.95 0.97 0.94 0.93 0.96 0.95 0.96 1.01 1.02
0.13 0.16 0.26 0.43 0.42 0.28 0.25 0.28 0.35 0.44 0.56 0.63 0.85 1.00 0.66 0.59 0.65 0.68 0.68 0.64 0.51 0.55 0.49 0.50 0.54 0.46 0.43 0.44 0.50 0.57 0.62 0.72 0.82 0.83 0.88 0.96 0.93 0.90 0.91 0.98 0.96 0.93 0.93 0.94
0.13 0.14 0.22 0.45 0.53 0.41 0.32 0.32 0.33 0.37 0.50 0.53 0.57 0.77 0.74 0.66 0.62 0.65 0.62 0.52 0.44 0.44 0.47 0.45 0.43 0.39 0.32 0.34 0.38 0.41 0.46 0.52 0.60 0.71 0.86 1.00 1.06 1.07 1.07 1.05 1.04 1.00 0.94 0.97
0.12 0.13 0.14 0.20 0.26 0.28 0.27 0.28 0.31 0.34 0.38 0.48 0.49 0.60 0.68 0.59 0.57 0.61 0.56 0.46 0.47 0.40 0.38 0.37 0.36 0.28 0.26 0.27 0.29 0.35 0.44 0.49 0.55 0.71 0.92 1.05 1.08 1.05 1.02 0.96 1.02 1.03 0.95 0.91
0.15 0.16 0.17 0.23 0.28 0.31 0.31 0.31 0.28 0.26 0.24 0.27 0.36 0.51 0.51 0.48 0.50 0.54 0.54 0.48 0.45 0.40 0.35 0.31 0.31 0.27 0.23 0.21 0.22 0.26 0.38 0.46 0.56 0.70 0.78 0.83 0.91 0.96 0.92 0.85 0.83 0.85 0.88 0.87
0.20 0.20 0.23 0.30 0.35 0.41 0.48 0.39 0.38 0.37 0.32 0.34 0.51 0.58 0.45 0.46 0.45 0.44 0.41 0.35 0.34 0.33 0.35 0.33 0.29 0.26 0.22 0.20 0.24 0.27 0.33 0.40 0.54 0.64 0.66 0.73 0.87 0.90 0.84 0.74 0.76 0.82 0.83 0.83
0.22 0.27 0.27 0.30 0.46 0.67 0.51 0.30 0.27 0.28 0.32 0.30 0.36 0.39 0.35 0.35 0.34 0.30 0.29 0.24 0.23 0.20 0.20 0.21 0.21 0.24 0.24 0.24 0.29 0.33 0.35 0.40 0.52 0.64 0.69 0.74 0.88 0.89 0.84 0.80 0.78 0.79 0.79 0.79
0.19 0.30 0.35 0.37 0.48 0.53 0.44 0.29 0.29 0.33 0.35 0.25 0.28 0.30 0.31 0.32 0.32 0.42 0.29 0.17 0.17 0.13 0.15 0.15 0.16 0.21 0.31 0.39 0.41 0.46 0.51 0.47 0.51 0.62 0.74 0.82 0.93 0.94 0.91 0.88 0.84 0.82 0.80 0.76
0.22 0.29 0.39 0.39 0.55 0.63 0.49 0.33 0.35 0.42 0.62 0.43 0.36 0.39 0.38 0.33 0.49 0.53 0.31 0.17 0.18 0.16 0.19 0.20 0.21 0.27 0.33 0.39 0.42 0.46 0.52 0.60 0.64 0.72 0.81 0.89 0.96 1.01 1.00 0.98 0.95 0.90 0.87 0.80
0.40 0.44 0.44 0.43 0.54 0.61 0.44 0.34 0.39 0.70 0.84 0.49 0.42 0.41 0.44 0.44 0.46 0.39 0.26 0.22 0.24 0.21 0.24 0.28 0.32 0.41 0.43 0.42 0.46 0.53 0.55 0.62 0.68 0.77 0.87 0.99 1.08 1.06 1.03 1.05 1.05 0.99 0.95 0.94
0.59 0.56 0.54 0.56 0.70 0.74 0.45 0.42 0.56 0.65 0.49 0.40 0.41 0.38 0.39 0.39 0.35 0.29 0.27 0.24 0.23 0.25 0.28 0.40 0.50 0.54 0.54 0.57 0.67 0.74 0.74 0.72 0.76 0.83 0.90 1.05 1.18 1.03 0.97 1.13 1.15 1.12 1.12 1.12
0.62 0.64 0.68 0.72 0.75 0.63 0.51 0.54 0.62 0.52 0.45 0.38 0.33 0.33 0.33 0.34 0.30 0.27 0.28 0.26 0.28 0.34 0.33 0.44 0.56 0.59 0.56 0.64 0.78 0.93 0.93 0.88 0.86 0.92 1.01 1.05 1.11 1.18 1.22 1.23 1.23 1.22 1.20 1.20
0.62 0.58 0.72 0.80 0.78 0.67 0.58 0.54 0.52 0.49 0.43 0.32 0.27 0.28 0.32 0.32 0.30 0.27 0.30 0.33 0.33 0.36 0.38 0.42 0.54 0.57 0.65 0.73 0.87 1.02 1.06 1.06 1.05 1.08 1.13 1.16 1.18 1.20 1.30 1.43 1.40 1.34 1.27 1.27
0.66 0.67 0.76 0.87 0.85 0.72 0.57 0.47 0.40 0.33 0.33 0.30 0.27 0.27 0.29 0.31 0.34 0.32 0.37 0.39 0.36 0.40 0.40 0.44 0.57 0.67 0.72 0.78 0.88 1.00 1.06 1.14 1.21 1.22 1.22 1.26 1.27 1.30 1.37 1.41 1.41 1.36 1.29 1.21
0.54 0.66 0.86 0.96 0.79 0.67 0.53 0.44 0.43 0.34 0.30 0.28 0.27 0.26 0.29 0.29 0.29 0.29 0.34 0.42 0.40 0.46 0.55 0.52 0.57 0.68 0.74 0.83 0.93 1.03 1.19 1.31 1.43 1.42 1.33 1.32 1.31 1.36 1.41 1.41 1.27 1.08 1.00 0.94